CW2856 Weather Reports


time (UTC)temp
F
wind
direction
speed
knots
gust
knots
rain 1hr
in
rain 24hr
in
rain mn
in
humidity
%
barometer
mb
20260510190319 68 42 9.6 13.9 0.00 0.00 0.00 45 1018.4
20260510184825 68 70 10.4 16.5 0.00 0.00 0.00 41 1018.3
20260510183328 70 76 12.2 20.0 0.00 0.00 0.00 42 1018.5
20260510181815 70 42 11.3 17.4 0.00 0.00 0.00 41 1018.4
20260510180319 71 53 11.3 15.6 0.00 0.00 0.00 43 1018.3
20260510174820 70 355 10.4 17.4 0.00 0.00 0.00 45 1018.3
20260510173345 70 28 10.4 13.0 0.00 0.00 0.00 46 1018.3
20260510171825 70 59 7.8 13.9 0.00 0.00 0.00 45 1018.1
20260510170332 70 63 10.4 16.5 0.00 0.00 0.00 47 1017.9
20260510164833 69 55 8.7 15.6 0.00 0.00 0.00 46 1018.0
20260510163315 69 35 9.6 14.8 0.00 0.00 0.00 43 1018.0
20260510161821 69 59 7.8 13.0 0.00 0.00 0.00 48 1017.9
20260510160324 67 49 8.7 20.9 0.00 0.00 0.00 50 1017.7
20260510154829 66 22 9.6 13.9 0.00 0.00 0.00 50 1017.2
20260510153332 66 61 9.6 18.2 0.00 0.00 0.00 50 1017.0
20260510151814 65 63 11.3 17.4 0.00 0.00 0.00 52 1016.9
20260510150321 64 355 12.2 20.0 0.00 0.00 0.00 53 1017.0
20260510144823 63 44 11.3 15.6 0.00 0.00 0.00 55 1016.9
20260510143329 62 33 9.6 13.9 0.00 0.00 0.00 61 1017.1
20260510141832 61 22 7.0 13.0 0.00 0.00 0.00 62 1017.4
20260510140314 61 28 7.8 10.4 0.00 0.00 0.00 61 1017.4
20260510134818 60 24 7.0 12.2 0.00 0.00 0.00 62 1017.3
20260510133340 61 42 7.0 13.9 0.00 0.00 0.00 63 1016.8
20260510131821 61 42 7.8 13.0 0.00 0.00 0.00 64 1016.4
20260510130328 61 38 8.7 12.2 0.00 0.00 0.00 66 1016.0
20260510124847 61 53 7.0 12.2 0.00 0.00 0.00 69 1015.4
20260510123347 61 54 7.0 13.9 0.00 0.00 0.00 69 1015.3
20260510121831 60 57 7.8 13.9 0.00 0.00 0.00 70 1014.8
20260510120333 60 46 8.7 13.0 0.00 0.00 0.00 74 1014.3
20260510114819 59 31 7.8 12.2 0.00 0.01 0.00 78 1014.2
20260510113320 58 32 7.0 11.3 0.00 0.01 0.00 79 1013.9
20260510111821 58 32 5.2 8.7 0.00 0.01 0.00 80 1013.6
20260510110327 58 43 4.3 5.2 0.00 0.01 0.00 80 1013.7
20260510104828 58 38 3.5 6.1 0.00 0.01 0.00 80 1013.7
20260510103333 58 37 3.5 7.0 0.00 0.01 0.00 81 1013.4
20260510101834 59 14 4.3 7.8 0.00 0.01 0.00 81 1013.3
20260510100316 59 44 4.3 8.7 0.00 0.01 0.00 83 1012.7
20260510094820 58 46 4.3 8.7 0.00 0.01 0.00 86 1012.6
20260510093342 57 10 3.5 4.3 0.00 0.01 0.00 88 1012.5
20260510091828 57 5 2.6 3.5 0.00 0.01 0.00 89 1012.4
20260510090331 57 11 1.7 3.5 0.00 0.01 0.00 90 1012.1
20260510084832 57 331 0.9 2.6 0.00 0.01 0.00 90 1011.8
20260510083317 57 227 0.0 0.0 0.00 0.01 0.00 90 1011.4
20260510081818 57 227 0.0 0.0 0.00 0.01 0.00 90 1011.4
20260510080325 57 227 0.0 0.0 0.00 0.01 0.00 89 1011.2
20260510074826 59 227 0.0 0.0 0.00 0.01 0.00 89 1011.4
20260510073347 59 227 0.0 0.0 0.00 0.01 0.00 89 1011.4
20260510071831 59 227 0.0 0.0 0.00 0.01 0.00 89 1011.1
20260510070354 59 227 0.0 0.9 0.00 0.01 0.00 88 1011.2
20260510064814 60 227 0.0 2.6 0.00 0.01 0.00 88 1011.1
20260510063319 61 227 0.0 0.0 0.00 0.01 0.00 87 1011.0
20260510061820 61 227 0.0 0.0 0.00 0.01 0.00 87 1010.7
20260510060343 62 227 0.0 1.7 0.00 0.01 0.00 86 1010.5
20260510054828 61 227 0.0 0.9 0.00 0.02 0.00 85 1010.5
20260510053329 62 227 0.9 1.7 0.00 0.02 0.00 82 1010.8
20260510051814 63 227 0.0 2.6 0.00 0.02 0.00 83 1010.7
20260510050338 63 227 0.9 2.6 0.00 0.02 0.00 82 1010.6
20260510044837 63 227 0.9 1.7 0.00 0.02 0.02 82 1010.9
20260510043342 62 10 0.0 3.5 0.00 0.02 0.02 83 1010.9
20260510041823 63 173 0.0 0.0 0.00 0.02 0.02 80 1010.6
20260510040327 63 173 0.0 0.9 0.00 0.02 0.02 80 1010.4
20260510034832 64 173 0.9 1.7 0.00 0.02 0.02 78 1010.2
20260510033333 65 173 0.0 1.7 0.00 0.02 0.02 76 1010.0
20260510031818 66 173 0.9 1.7 0.00 0.02 0.02 75 1009.6
20260510030321 67 173 1.7 2.6 0.00 0.02 0.02 72 1009.3
20260510024821 66 173 1.7 3.5 0.00 0.02 0.02 72 1009.1
20260510023346 66 197 1.7 3.5 0.00 0.02 0.02 74 1008.9
20260510021826 66 199 1.7 2.6 0.00 0.02 0.02 75 1008.6
20260510020328 66 199 1.7 2.6 0.00 0.02 0.02 74 1008.2
20260510014832 67 199 1.7 2.6 0.00 0.02 0.02 73 1007.7
20260510013331 69 199 0.9 2.6 0.00 0.02 0.02 70 1007.3
20260510011815 72 193 1.7 2.6 0.00 0.02 0.02 65 1007.2
20260510010335 74 193 0.9 2.6 0.00 0.02 0.02 57 1006.9
20260510004816 76 175 1.7 4.3 0.00 0.05 0.02 52 1006.7
20260510003321 78 209 2.6 5.2 0.00 0.05 0.02 49 1006.7
20260510001822 80 177 3.5 5.2 0.00 0.05 0.02 47 1006.7
20260510000326 80 208 4.3 6.1 0.00 0.05 0.02 44 1006.7
20260509234830 82 198 3.5 7.0 0.00 0.05 0.02 43 1006.6
20260509233331 82 196 0.9 7.0 0.00 0.05 0.02 46 1006.6
20260509231816 82 201 3.5 7.0 0.00 0.05 0.02 41 1006.6
20260509230319 82 171 3.5 6.1 0.00 0.05 0.02 41 1006.5
20260509224819 81 203 2.6 6.1 0.00 0.05 0.02 42 1006.6
20260509223324 82 190 4.3 6.1 0.00 0.05 0.02 38 1006.5
20260509221826 82 201 4.3 7.8 0.00 0.05 0.02 39 1006.6
20260509220334 84 211 5.2 9.6 0.00 0.05 0.02 39 1006.5
20260509214814 85 206 5.2 7.8 0.00 0.05 0.02 35 1006.5
20260509213315 84 246 4.3 10.4 0.00 0.05 0.02 35 1006.5
20260509211821 85 187 4.3 7.8 0.00 0.05 0.02 36 1006.6
20260509210323 84 256 2.6 8.7 0.00 0.05 0.02 35 1006.9
20260509204829 84 218 2.6 7.8 0.00 0.05 0.02 34 1007.1
20260509203331 84 246 5.2 8.7 0.00 0.05 0.02 31 1007.2
20260509201853 84 244 7.0 11.3 0.00 0.05 0.02 35 1007.4
20260509200319 83 265 7.8 9.6 0.00 0.05 0.02 32 1007.6
20260509194842 83 223 4.3 12.2 0.00 0.05 0.02 36 1007.7
20260509193323 83 316 7.0 10.4 0.00 0.05 0.02 35 1007.9
20260509191829 83 263 5.2 9.6 0.00 0.05 0.02 35 1007.9